KC3LDA Weather Reports


time (UTC)temp
F
wind
direction
speed
knots
gust
knots
rain 1hr
in
rain 24hr
in
rain mn
in
humidity
%
barometer
mb
20260506044116 57 206 7.0 20.9 0.00 0.00 0.00 92 1008.3
20260506043613 57 191 9.6 23.5 0.00 0.00 0.00 92 1008.1
20260506043111 57 187 4.3 17.4 0.00 0.00 0.00 93 1008.2
20260506042610 56 194 13.0 18.2 0.00 0.00 0.00 92 1008.5
20260506042107 57 227 9.6 16.5 0.00 0.00 0.00 93 1008.2
20260506041606 57 207 4.3 19.1 0.00 0.00 0.00 92 1008.3
20260506041102 57 190 13.0 19.1 0.00 0.00 0.00 92 1008.5
20260506040600 57 187 10.4 20.0 0.00 0.00 0.00 92 1008.4
20260506040056 57 189 7.8 20.0 0.00 0.00 0.00 92 1008.4
20260506035553 57 215 6.1 20.0 0.00 0.00 0.00 91 1008.5
20260506035050 57 188 9.6 20.0 0.00 0.00 0.00 91 1008.5
20260506034547 57 197 7.8 21.7 0.00 0.00 0.00 91 1008.2
20260506034044 57 190 16.5 24.3 0.00 0.00 0.00 91 1008.2
20260506033541 57 178 8.7 22.6 0.00 0.00 0.00 91 1008.2
20260506033038 57 174 4.3 22.6 0.00 0.00 0.00 90 1008.1
20260506032536 57 190 9.6 19.1 0.00 0.00 0.00 90 1008.2
20260506032032 57 187 7.8 27.8 0.00 0.00 0.00 90 1008.1
20260506031530 57 211 17.4 24.3 0.00 0.00 0.00 90 1008.4
20260506031027 57 218 8.7 17.4 0.00 0.00 0.00 90 1008.1
20260506030525 57 174 8.7 30.4 0.00 0.00 0.00 90 1008.1
20260506030022 57 188 8.7 19.1 0.00 0.00 0.00 90 1008.2
20260506025519 58 199 7.8 19.1 0.00 0.00 0.00 90 1008.3
20260506025015 58 213 13.9 16.5 0.00 0.00 0.00 90 1008.2
20260506024512 58 203 8.7 18.2 0.00 0.00 0.00 91 1008.5
20260506024008 57 201 4.3 20.9 0.00 0.00 0.00 91 1008.5
20260506023504 58 208 7.0 21.7 0.00 0.00 0.00 91 1008.4
20260506023001 58 196 5.2 16.5 0.00 0.00 0.00 90 1008.4
20260506022459 58 196 8.7 19.1 0.00 0.00 0.00 90 1008.5
20260506021956 58 189 7.8 20.0 0.00 0.00 0.00 90 1008.3
20260506021454 58 206 16.5 19.1 0.00 0.00 0.00 90 1008.5
20260506020951 58 141 8.7 19.1 0.00 0.00 0.00 90 1008.5
20260506020448 58 209 13.0 21.7 0.00 0.00 0.00 90 1008.4
20260506015945 58 215 5.2 16.5 0.00 0.00 0.00 90 1008.4
20260506015443 58 214 4.3 19.1 0.00 0.00 0.00 89 1008.3
20260506014940 58 200 6.1 19.1 0.00 0.00 0.00 89 1008.3
20260506014437 58 216 7.8 20.0 0.00 0.00 0.00 89 1008.2
20260506013933 58 198 9.6 20.9 0.00 0.00 0.00 89 1008.0
20260506013431 58 191 11.3 15.6 0.00 0.00 0.00 88 1008.1
20260506012927 58 205 11.3 20.9 0.00 0.00 0.00 88 1008.1
20260506012424 58 212 14.8 20.9 0.00 0.00 0.00 88 1008.0
20260506011921 58 206 5.2 15.6 0.00 0.00 0.00 89 1008.1
20260506011418 58 207 7.0 18.2 0.00 0.00 0.00 89 1008.1
20260506010915 58 180 11.3 27.8 0.00 0.00 0.00 88 1008.1
20260506010414 58 170 4.3 20.9 0.00 0.00 0.00 87 1008.1
20260506005909 59 200 10.4 19.1 0.00 0.00 0.00 87 1007.9
20260506005408 59 223 9.6 25.2 0.00 0.00 0.00 87 1007.8
20260506004902 59 187 7.8 20.9 0.00 0.00 0.00 86 1007.7
20260506004401 59 196 12.2 22.6 0.00 0.00 0.00 87 1007.9
20260506003856 59 211 10.4 24.3 0.00 0.00 0.00 86 1007.6
20260506003353 59 203 7.8 17.4 0.00 0.00 0.00 86 1007.5
20260506002849 59 211 14.8 19.1 0.00 0.00 0.00 86 1007.7
20260506002345 60 193 7.8 19.1 0.00 0.00 0.00 85 1007.3
20260506001841 60 214 12.2 26.1 0.00 0.00 0.00 83 1007.4
20260506001338 60 190 24.3 24.3 0.00 0.00 0.00 83 1007.3
20260506000835 60 208 3.5 23.5 0.00 0.00 0.00 84 1007.4
20260506000333 59 211 6.1 22.6 0.00 0.00 0.00 85 1007.1
20260505235830 59 190 10.4 22.6 0.00 0.00 0.00 86 1007.0
20260505235327 59 204 9.6 20.9 0.00 0.00 0.00 86 1007.1
20260505234824 60 167 11.3 20.0 0.00 0.00 0.00 85 1007.0
20260505234322 59 186 8.7 20.0 0.00 0.00 0.00 86 1007.1
20260505233819 59 183 7.8 20.9 0.00 0.00 0.00 85 1006.6
20260505233317 60 209 12.2 21.7 0.00 0.00 0.00 85 1006.5
20260505232813 60 190 10.4 31.3 0.00 0.00 0.00 85 1006.6
20260505232311 59 188 25.2 28.7 0.00 0.00 0.00 85 1006.4
20260505231808 59 199 9.6 20.0 0.00 0.00 0.00 86 1006.5
20260505231306 59 197 18.2 20.0 0.00 0.00 0.00 86 1006.6
20260505230804 59 196 7.0 25.2 0.00 0.00 0.00 86 1006.5
20260505230300 59 182 8.7 20.0 0.00 0.00 0.00 85 1006.4
20260505225757 60 191 14.8 26.9 0.00 0.00 0.00 85 1006.4
20260505225254 60 167 4.3 23.5 0.00 0.00 0.00 85 1006.4
20260505224749 60 201 10.4 20.9 0.00 0.00 0.00 85 1006.5
20260505224247 60 180 8.7 22.6 0.00 0.00 0.00 85 1006.2
20260505223744 60 200 9.6 26.1 0.00 0.00 0.00 85 1006.2
20260505223241 60 180 14.8 25.2 0.00 0.00 0.00 85 1006.1
20260505222737 60 208 12.2 22.6 0.00 0.00 0.00 85 1005.9
20260505222233 60 191 9.6 20.9 0.00 0.00 0.00 86 1006.3
20260505221730 60 189 8.7 24.3 0.00 0.00 0.00 85 1006.3
20260505221227 60 198 5.2 29.5 0.00 0.00 0.00 84 1006.2
20260505220724 60 180 13.0 21.7 0.00 0.00 0.00 84 1006.1
20260505220221 60 192 6.1 25.2 0.00 0.00 0.00 84 1005.8
20260505215720 60 202 6.1 22.6 0.00 0.00 0.00 83 1006.2
20260505215217 61 187 8.7 22.6 0.00 0.00 0.00 84 1006.0
20260505214714 60 197 13.0 27.8 0.00 0.00 0.00 83 1006.0
20260505214212 61 184 4.3 23.5 0.00 0.00 0.00 83 1006.3
20260505213709 61 200 13.0 23.5 0.00 0.00 0.00 83 1006.1
20260505213206 61 167 5.2 21.7 0.00 0.00 0.00 83 1005.8
20260505212702 61 216 5.2 22.6 0.00 0.00 0.00 83 1005.8
20260505212159 61 201 14.8 25.2 0.00 0.00 0.00 84 1005.5
20260505211656 61 192 7.0 20.0 0.00 0.00 0.00 83 1005.8
20260505211153 61 210 13.0 23.5 0.00 0.00 0.00 83 1006.0
20260505210650 61 207 11.3 20.0 0.00 0.00 0.00 84 1005.6
20260505210147 60 202 11.3 24.3 0.00 0.00 0.00 84 1005.6
20260505205644 60 208 10.4 26.1 0.00 0.00 0.00 84 1005.9
20260505205142 61 198 8.7 16.5 0.00 0.00 0.00 83 1005.5
20260505204639 60 203 13.9 21.7 0.00 0.00 0.00 84 1005.8
20260505204137 61 207 7.0 22.6 0.00 0.00 0.00 84 1005.5
20260505203633 60 201 14.8 22.6 0.00 0.00 0.00 84 1005.6
20260505203130 61 198 6.1 18.2 0.00 0.00 0.00 84 1005.8
20260505202626 61 198 6.1 26.1 0.00 0.00 0.00 84 1005.6
20260505202122 61 190 7.8 20.9 0.00 0.00 0.00 84 1005.8
20260505201619 60 208 12.2 22.6 0.00 0.00 0.00 84 1005.8
20260505201117 61 204 7.8 24.3 0.00 0.00 0.00 84 1005.9
20260505200614 61 193 14.8 26.1 0.00 0.00 0.00 85 1005.8
20260505200111 61 211 9.6 20.9 0.00 0.00 0.00 85 1005.8
20260505195608 61 190 20.0 20.9 0.00 0.00 0.00 84 1006.0
20260505195105 60 190 6.1 20.9 0.00 0.00 0.00 85 1006.2
20260505194602 61 202 10.4 20.9 0.00 0.00 0.00 84 1006.1
20260505194058 60 200 7.0 23.5 0.00 0.00 0.00 85 1006.1
20260505193555 61 218 4.3 19.1 0.00 0.00 0.00 85 1006.3
20260505193052 61 192 5.2 13.9 0.00 0.00 0.00 84 1006.3
20260505192551 61 199 7.0 14.8 0.00 0.00 0.00 84 1006.5
20260505192048 61 180 8.7 20.0 0.00 0.00 0.00 85 1006.5
20260505191546 61 211 10.4 20.0 0.00 0.00 0.00 84 1006.8
20260505191044 61 192 7.8 19.1 0.00 0.00 0.00 85 1006.7
20260505190543 61 214 7.8 18.2 0.00 0.00 0.00 85 1006.9
20260505190040 61 200 9.6 15.6 0.00 0.00 0.00 84 1006.9
20260505185537 61 188 8.7 18.2 0.00 0.00 0.00 85 1007.2
20260505185033 61 219 4.3 21.7 0.00 0.00 0.00 86 1007.2
20260505184530 61 167 10.4 16.5 0.00 0.00 0.00 85 1007.2
20260505184027 61 190 4.3 15.6 0.00 0.00 0.00 84 1007.3
20260505183524 61 190 7.8 14.8 0.00 0.00 0.00 85 1007.5
20260505183021 61 193 7.0 14.8 0.00 0.00 0.00 85 1007.7
20260505182517 61 224 7.8 14.8 0.00 0.00 0.00 85 1007.5
20260505182014 61 211 8.7 12.2 0.00 0.00 0.00 85 1007.8
20260505181511 61 227 7.0 10.4 0.00 0.00 0.00 84 1007.7
20260505181008 60 194 6.1 14.8 0.00 0.00 0.00 86 1007.7
20260505180504 61 227 2.6 13.0 0.00 0.00 0.00 85 1008.0
20260505180001 61 211 6.1 11.3 0.00 0.00 0.00 86 1007.9
20260505175457 61 176 6.1 11.3 0.00 0.00 0.00 86 1007.9
20260505174954 60 193 3.5 11.3 0.00 0.00 0.00 86 1008.1
20260505174451 61 186 3.5 9.6 0.00 0.00 0.00 85 1008.3
20260505173947 61 171 3.5 13.0 0.00 0.00 0.00 86 1008.4
20260505173443 62 189 3.5 9.6 0.00 0.00 0.00 85 1008.4
20260505172941 62 187 4.3 11.3 0.00 0.00 0.00 85 1008.1
20260505172439 61 180 5.2 9.6 0.00 0.00 0.00 85 1008.1
20260505171938 61 179 5.2 8.7 0.00 0.00 0.00 86 1008.0
20260505171435 60 189 7.8 9.6 0.00 0.00 0.00 87 1008.4
20260505170932 60 210 8.7 13.0 0.00 0.00 0.00 87 1008.3
20260505170428 60 184 4.3 10.4 0.00 0.00 0.00 87 1008.3
20260505165924 60 194 6.1 13.0 0.00 0.00 0.00 87 1008.3
20260505165420 60 179 3.5 12.2 0.00 0.00 0.00 88 1008.6
20260505164915 60 161 4.3 15.6 0.00 0.00 0.00 87 1008.6
20260505164413 60 168 6.1 14.8 0.00 0.00 0.00 87 1008.5
20260505163911 61 185 4.3 9.6 0.00 0.00 0.00 86 1008.7
20260505163409 61 207 6.1 9.6 0.00 0.00 0.00 86 1008.5
20260505162908 60 191 7.0 11.3 0.00 0.00 0.00 86 1008.4
20260505162403 60 167 5.2 12.2 0.00 0.00 0.00 86 1008.6
20260505161900 60 205 7.8 14.8 0.00 0.00 0.00 86 1008.5
20260505161357 61 192 2.6 8.7 0.00 0.00 0.00 86 1008.7
20260505160854 61 196 5.2 13.9 0.00 0.00 0.00 86 1008.4
20260505160352 61 193 4.3 10.4 0.00 0.00 0.00 86 1008.7
20260505153331 61 218 3.5 10.4 0.00 0.00 0.00 87 1008.9
20260505152828 61 180 4.3 8.7 0.00 0.00 0.00 86 1008.8
20260505152325 61 171 4.3 10.4 0.00 0.00 0.00 86 1008.8
20260505151820 60 180 7.0 9.6 0.00 0.00 0.00 87 1008.9
20260505151317 60 184 5.2 11.3 0.00 0.00 0.00 88 1008.9
20260505150814 60 205 7.0 10.4 0.00 0.00 0.00 87 1009.1
20260505150311 60 208 5.2 11.3 0.00 0.00 0.00 88 1009.3
20260505140241 59 204 10.4 12.2 0.00 0.00 0.00 90 1008.9
20260505130205 57 161 3.5 8.7 0.00 0.00 0.00 93 1008.8
20260505124654 57 202 5.2 12.2 0.00 0.00 0.00 93 1008.8
20260505124151 57 210 1.7 9.6 0.00 0.00 0.00 93 1008.7
20260505123647 57 189 5.2 9.6 0.00 0.00 0.00 94 1008.6
20260505123144 57 162 6.1 8.7 0.00 0.00 0.00 94 1008.7
20260505122640 56 218 6.1 9.6 0.00 0.00 0.00 94 1008.6
20260505122138 56 179 4.3 7.0 0.00 0.00 0.00 95 1008.6
20260505121634 56 172 6.1 6.1 0.00 0.00 0.00 94 1008.6
20260505121131 57 184 2.6 5.2 0.00 0.00 0.00 95 1008.7
20260505120628 56 178 2.6 7.0 0.00 0.00 0.00 95 1009.0
20260505120124 56 165 4.3 6.1 0.00 0.00 0.00 94 1008.7
20260505115623 56 180 4.3 7.0 0.00 0.00 0.00 94 1008.7
20260505115121 56 193 2.6 5.2 0.00 0.00 0.00 94 1008.9
20260505114618 56 182 1.7 6.1 0.00 0.00 0.00 96 1008.7
20260505114114 55 204 0.9 5.2 0.00 0.00 0.00 96 1008.8
20260505113611 55 147 0.9 5.2 0.00 0.00 0.00 96 1009.0
20260505113108 55 187 2.6 5.2 0.00 0.00 0.00 96 1009.0
20260505112604 55 195 3.5 6.1 0.00 0.00 0.00 96 1009.1
20260505112103 55 193 3.5 6.1 0.00 0.00 0.00 96 1008.9
20260505111601 55 160 3.5 7.0 0.00 0.00 0.00 95 1008.7
20260505111058 55 159 3.5 5.2 0.00 0.00 0.00 96 1008.9
20260505110554 55 226 1.7 4.3 0.00 0.00 0.00 96 1009.1
20260505102027 53 175 1.7 6.1 0.00 0.00 0.00 99 1008.1
20260505101526 53 202 2.6 7.8 0.00 0.00 0.00 99 1008.0
20260505101021 53 209 2.6 6.1 0.00 0.00 0.00 99 1008.1
20260505100519 53 186 3.5 7.0 0.00 0.00 0.00 99 1008.1
20260505100016 53 187 2.6 8.7 0.00 0.00 0.00 99 1007.6
20260505095511 53 201 2.6 6.1 0.00 0.00 0.00 99 1007.8
20260505095008 53 145 8.7 8.7 0.00 0.00 0.00 99 1008.1
20260505094504 53 186 1.7 7.0 0.00 0.00 0.00 99 1007.7
20260505094001 52 173 2.6 4.3 0.00 0.00 0.00 99 1007.7
20260505093457 53 157 0.0 5.2 0.00 0.00 0.00 99 1007.9
20260505092955 53 195 1.7 4.3 0.00 0.00 0.00 99 1007.5
20260505092452 53 151 0.0 4.3 0.00 0.00 0.00 99 1008.0
20260505091949 53 174 1.7 6.1 0.00 0.00 0.00 99 1007.8
20260505091447 53 207 1.7 4.3 0.00 0.00 0.00 99 1007.7
20260505090945 53 201 1.7 5.2 0.00 0.00 0.00 99 1007.7
20260505090443 53 201 1.7 5.2 0.00 0.00 0.00 98 1007.7
20260505085940 53 148 0.9 5.2 0.00 0.00 0.00 99 1007.8
20260505085438 53 194 1.7 3.5 0.00 0.00 0.00 98 1007.6
20260505084936 53 198 0.9 3.5 0.00 0.00 0.00 98 1007.8
20260505084434 53 198 3.5 4.3 0.00 0.00 0.00 98 1007.7
20260505083931 53 187 1.7 6.1 0.00 0.00 0.00 98 1007.6
20260505083428 53 168 1.7 4.3 0.00 0.00 0.00 98 1007.6
20260505082925 53 193 2.6 6.1 0.00 0.00 0.00 98 1007.7
20260505082420 53 199 2.6 8.7 0.00 0.00 0.00 98 1007.8
20260505081918 53 181 1.7 7.8 0.00 0.00 0.00 98 1007.7
20260505081415 53 183 2.6 7.0 0.00 0.00 0.00 98 1007.9
20260505080911 53 193 3.5 7.8 0.00 0.00 0.00 97 1007.9
20260505080407 53 153 1.7 6.1 0.00 0.00 0.00 97 1008.0
20260505075903 53 194 3.5 9.6 0.00 0.00 0.00 97 1007.8
20260505075359 53 199 2.6 7.8 0.00 0.00 0.00 97 1007.8
20260505074857 53 226 3.5 6.1 0.00 0.00 0.00 97 1007.9
20260505074354 53 195 3.5 6.1 0.00 0.00 0.00 97 1007.8
20260505073851 53 186 2.6 7.0 0.00 0.00 0.00 97 1007.6
20260505073349 53 196 2.6 7.0 0.00 0.00 0.00 97 1007.6
20260505072846 53 191 2.6 6.1 0.00 0.00 0.00 97 1007.8
20260505072342 53 195 2.6 6.1 0.00 0.00 0.00 96 1007.6
20260505071838 53 128 0.9 4.3 0.00 0.00 0.00 96 1007.8
20260505071335 53 201 3.5 5.2 0.00 0.00 0.00 96 1007.9
20260505070833 53 189 3.5 6.1 0.00 0.00 0.00 96 1007.6
20260505070329 53 224 3.5 7.8 0.00 0.00 0.00 96 1007.9
20260505065824 53 161 1.7 7.8 0.00 0.00 0.00 96 1007.8
20260505065321 53 176 2.6 4.3 0.00 0.00 0.00 96 1008.0
20260505064819 53 202 0.9 7.0 0.00 0.00 0.00 95 1007.9
20260505064316 53 164 2.6 8.7 0.00 0.00 0.00 96 1007.8
20260505063814 53 203 3.5 10.4 0.00 0.00 0.00 96 1007.6
20260505063309 53 205 5.2 7.0 0.00 0.00 0.00 96 1007.8
20260505062806 53 198 5.2 7.8 0.00 0.00 0.00 95 1008.0
20260505062304 53 155 4.3 11.3 0.00 0.00 0.00 95 1007.9
20260505061800 53 198 4.3 9.6 0.00 0.00 0.00 95 1007.9
20260505061258 53 158 4.3 9.6 0.00 0.00 0.00 96 1008.1
20260505060755 53 212 3.5 7.8 0.00 0.00 0.00 95 1008.1
20260505060252 53 168 2.6 6.1 0.00 0.00 0.00 95 1008.1
20260505055748 53 200 2.6 7.8 0.00 0.00 0.00 95 1008.1
20260505055244 53 202 4.3 6.1 0.00 0.00 0.00 95 1008.2
20260505054742 53 187 4.3 9.6 0.00 0.00 0.00 95 1007.9
20260505054239 53 205 2.6 7.0 0.00 0.00 0.00 95 1008.3
20260505053738 53 212 1.7 6.1 0.00 0.00 0.00 95 1008.3
20260505053234 53 206 0.9 3.5 0.00 0.00 0.00 95 1008.2
20260505052731 53 158 1.7 4.3 0.00 0.00 0.00 95 1008.3
20260505052228 53 211 3.5 5.2 0.00 0.00 0.00 96 1008.5
20260505051725 53 228 7.0 7.0 0.00 0.00 0.00 96 1008.2
20260505051223 53 192 2.6 8.7 0.00 0.00 0.00 95 1008.5
20260505050720 53 216 4.3 8.7 0.00 0.00 0.00 95 1008.4
20260505050219 53 216 2.6 5.2 0.00 0.00 0.00 95 1008.1